FW1785 Weather Reports


time (UTC)temp
C
wind
direction
speed
KPH
gust
KPH
rain 1hr
cm
rain 24hr
cm
rain mn
cm
humidity
%
barometer
mb
20260507153041 18 277 3.2 6.4 0.00 0.00 0.00 77 1042.5
20260507151537 18 293 1.6 8.0 0.00 0.00 0.00 75 1042.5
20260507150036 18 266 4.8 11.3 0.00 0.00 0.00 74 1042.3
20260507144537 18 286 1.6 8.0 0.00 0.00 0.00 75 1042.4
20260507143039 18 289 4.8 12.9 0.00 0.00 0.00 74 1042.3
20260507141534 18 319 4.8 14.5 0.00 0.00 0.00 73 1042.3
20260507140035 18 330 4.8 16.1 0.00 0.00 0.00 73 1042.3
20260507134531 18 342 4.8 16.1 0.00 0.00 0.00 73 1042.4
20260507133031 18 332 4.8 19.3 0.00 0.00 0.00 73 1042.4
20260507131529 19 309 4.8 20.9 0.00 0.00 0.00 71 1042.4
20260507130037 19 355 4.8 9.7 0.00 0.00 0.00 71 1042.6
20260507124536 19 327 6.4 20.9 0.00 0.00 0.00 71 1042.5
20260507123027 19 37 4.8 27.4 0.00 0.00 0.00 71 1042.6
20260507121526 19 28 4.8 20.9 0.00 0.00 0.00 69 1042.8
20260507120025 18 340 6.4 20.9 0.00 0.00 0.00 69 1042.9
20260507114537 19 333 8.0 17.7 0.00 0.00 0.00 70 1043.1
20260507113043 19 343 8.0 24.1 0.00 0.00 0.00 69 1043.3
20260507111530 19 327 8.0 17.7 0.00 0.00 0.00 65 1043.4
20260507110023 19 317 8.0 20.9 0.00 0.00 0.00 63 1043.4
20260507104522 20 9 4.8 20.9 0.00 0.00 0.00 60 1043.4
20260507103024 20 23 6.4 20.9 0.00 0.00 0.00 61 1043.2
20260507101520 20 299 8.0 19.3 0.00 0.00 0.00 57 1043.2
20260507100019 20 319 3.2 20.9 0.00 0.00 0.00 55 1043.2
20260507094518 20 345 4.8 16.1 0.00 0.00 0.00 52 1043.3
20260507093017 20 26 3.2 16.1 0.00 0.00 0.00 54 1043.4
20260507091514 20 67 4.8 14.5 0.00 0.00 0.00 52 1043.8
20260507090013 20 338 4.8 14.5 0.00 0.00 0.00 49 1043.8
20260507084510 20 345 3.2 16.1 0.00 0.00 0.00 50 1043.9
20260507083008 20 321 4.8 17.7 0.00 0.00 0.00 47 1043.9
20260507081507 20 19 8.0 17.7 0.00 0.00 0.00 46 1043.9
20260507074600 20 38 6.4 17.7 0.00 0.00 0.00 45 1043.7
20260507073054 20 355 3.2 14.5 0.00 0.00 0.00 44 1043.7
20260507071547 20 24 6.4 14.5 0.00 0.00 0.00 46 1043.5
20260507070046 19 22 3.2 16.1 0.00 0.00 0.00 45 1043.7
20260507064540 19 26 4.8 12.9 0.00 0.00 0.00 47 1043.6
20260507063040 18 19 1.6 12.9 0.00 0.00 0.00 46 1043.5
20260507061530 18 5 1.6 8.0 0.00 0.00 0.00 47 1043.4
20260507060030 18 33 3.2 6.4 0.00 0.00 0.00 55 1043.4
20260507054522 18 134 0.0 3.2 0.00 0.00 0.00 59 1043.4
20260507053018 17 67 0.0 0.0 0.00 0.00 0.00 65 1043.4
20260507051513 16 67 1.6 3.2 0.00 0.00 0.00 68 1043.3
20260507050013 15 69 0.0 1.6 0.00 0.00 0.00 74 1043.1
20260507044505 13 69 0.0 3.2 0.00 0.00 0.00 79 1043.0
20260507043127 12 157 0.0 3.2 0.00 0.00 0.00 81 1043.2
20260507041559 11 197 0.0 0.0 0.00 0.00 0.00 82 1043.2
20260507040153 10 197 0.0 1.6 0.00 0.00 0.00 81 1043.0
20260507034546 9 197 0.0 6.4 0.00 0.00 0.00 81 1042.9
20260507033042 8 196 4.8 8.0 0.00 0.00 0.00 82 1042.8
20260507031544 7 188 4.8 8.0 0.00 0.00 0.00 83 1042.7
20260507030036 7 186 4.8 8.0 0.00 0.00 0.00 84 1042.7
20260507024535 7 194 4.8 8.0 0.00 0.00 0.00 84 1042.5
20260507023035 7 185 1.6 4.8 0.00 0.00 0.00 83 1042.4
20260507021537 8 189 3.2 8.0 0.00 0.00 0.00 82 1042.4
20260507020046 7 186 3.2 6.4 0.00 0.00 0.00 84 1042.4
20260507014534 7 180 1.6 8.0 0.00 0.00 0.00 84 1042.3
20260507013031 8 160 0.0 9.7 0.00 0.00 0.00 84 1042.2
20260507011541 8 192 3.2 6.4 0.00 0.00 0.00 84 1042.2
20260507010033 8 200 4.8 6.4 0.00 0.00 0.00 83 1042.1
20260507004528 8 190 3.2 8.0 0.00 0.00 0.00 84 1042.2
20260507003026 8 194 4.8 8.0 0.00 0.00 0.00 87 1042.1
20260507001550 8 188 3.2 6.4 0.00 0.00 0.00 87 1042.2
20260507000024 8 199 3.2 8.0 0.00 0.00 0.00 88 1042.2
20260506234520 8 190 3.2 6.4 0.00 0.00 0.00 88 1042.3
20260506233019 8 190 4.8 6.4 0.00 0.00 0.00 88 1042.3
20260506231518 8 188 3.2 6.4 0.00 0.00 0.00 88 1042.4
20260506230017 8 194 1.6 8.0 0.00 0.00 0.00 88 1042.4
20260506224516 8 192 3.2 6.4 0.00 0.00 0.00 89 1042.4
20260506223013 8 186 0.0 4.8 0.00 0.00 0.00 88 1042.6
20260506221512 8 182 1.6 6.4 0.00 0.00 0.00 88 1042.5
20260506220009 8 180 1.6 4.8 0.00 0.00 0.00 88 1042.7
20260506214507 8 180 1.6 4.8 0.00 0.00 0.00 88 1042.9
20260506213004 9 184 1.6 8.0 0.00 0.00 0.00 88 1042.9
20260506211559 9 183 3.2 6.4 0.00 0.00 0.00 88 1042.7
20260506210155 9 182 3.2 6.4 0.00 0.00 0.00 88 1042.8
20260506204557 9 181 1.6 4.8 0.00 0.00 0.00 87 1042.8
20260506203116 9 181 0.0 4.8 0.00 0.00 0.00 86 1042.8
20260506201552 9 180 0.0 3.2 0.00 0.00 0.00 84 1042.8
20260506200056 10 185 1.6 6.4 0.00 0.00 0.00 84 1042.8
20260506194553 10 191 3.2 8.0 0.00 0.00 0.00 83 1042.8
20260506193054 10 192 3.2 6.4 0.00 0.00 0.00 83 1042.7
20260506191549 10 178 4.8 8.0 0.00 0.00 0.00 83 1042.6
20260506190052 10 195 4.8 9.7 0.00 0.00 0.00 82 1042.5
20260506184550 10 167 0.0 4.8 0.00 0.00 0.00 82 1042.4
20260506183046 11 173 0.0 8.0 0.00 0.00 0.00 83 1042.1
20260506181552 11 187 3.2 6.4 0.00 0.00 0.00 84 1042.0
20260506180043 12 191 4.8 6.4 0.00 0.00 0.00 82 1041.8
20260506174541 13 194 3.2 8.0 0.00 0.00 0.00 80 1041.7
20260506173045 13 149 0.0 3.2 0.00 0.00 0.00 79 1041.6
20260506171539 14 149 0.0 4.8 0.00 0.00 0.00 77 1041.4
20260506170044 14 115 0.0 4.8 0.00 0.00 0.00 77 1041.3
20260506164551 15 241 1.6 11.3 0.00 0.00 0.00 76 1041.1
20260506163041 15 260 6.4 11.3 0.00 0.00 0.00 75 1040.9
20260506161535 15 252 4.8 11.3 0.00 0.00 0.00 74 1040.9
20260506160036 16 267 4.8 11.3 0.00 0.00 0.00 70 1040.9
20260506154534 17 260 6.4 11.3 0.00 0.00 0.00 68 1040.7